Flag for U.S.A. Weather past 2 weeks in Stamford, Connecticut, U.S.A.

Now
72 °F

Sunny.


Feels Like: 72 °F
Forecast: 65 / 71 °F
Wind: 3 mph from Southeast

Location: Westchester County Airport

Current Time: Aug 1, 2014 at 8:23:50 PM

Latest Report: Aug 1, 2014 at 7:56 PM


Visibility: 9 mi

Pressure: 30.18 "Hg

Humidity: 81%

Dew point: 66 °F

Location of StamfordLocation

Historic Weather in Stamford — Graph

°F

Stamford temperature yesterday

Maximum temperature yesterday: 80 °F (at 1:56 PM)
Minimum temperature yesterday: 60 °F (at 5:56 AM)
Average temperature yesterday: 70 °F

Past Weeks' High & Low Weather Summary

 TemperatureHumidityPressure
High86 °F (Jul 23, 1:56 PM)97% (Jul 27, 5:56 AM)30.24 "Hg (Jul 27, 5:56 AM)
Low56 °F (Jul 30, 5:56 AM)36% (Jul 18, 3:56 PM)29.49 "Hg (Jul 28, 1:56 PM)
Average71 °F71%29.99 "Hg
* Reported Jul 17 6:56 PM — Aug 1 6:56 PM, Stamford, Weather by CustomWeather, © 2014

Note: Actual official high and low records may vary slightly from our data, if they occured in-between our weather recording intervals... More about our weather records

Advertising

Stamford weather history for previous 24 hours

 ConditionsComfort  
Time TempWeatherWind HumidityBarometerVisibility
6:56 PM
Aug 1
73 °FScattered clouds.6 mph81%30.18 "Hg9 mi
5:56 PM74 °FBroken clouds.9 mph82%30.18 "Hg8 mi
4:56 PM74 °FFog.5 mph82%30.21 "Hg7 mi
3:56 PM73 °FFog.8 mph84%30.19 "Hg6 mi
2:56 PM75 °FLight rain. Broken clouds.No wind66%30.20 "Hg10 mi
1:56 PM76 °FDrizzle. Broken clouds.12 mph72%30.18 "Hg9 mi
12:56 PM81 °FScattered clouds.10 mph62%30.17 "Hg8 mi
11:56 AM81 °FScattered clouds.7 mph65%30.18 "Hg8 mi
10:56 AM81 °FPassing clouds.7 mph65%30.18 "Hg8 mi
9:56 AM76 °FSunny.No wind74%30.18 "Hg8 mi
8:56 AM74 °FSunny.6 mph79%30.18 "Hg7 mi
7:56 AM71 °FFog.3 mph87%30.18 "Hg6 mi
6:56 AM68 °FFog.No wind93%30.17 "Hg6 mi
5:56 AM67 °FFog.No wind93%30.16 "Hg6 mi
4:56 AM64 °FFog.No wind97%30.16 "Hg5 mi
3:56 AM65 °FFog.No wind97%30.15 "Hg5 mi
2:56 AM66 °FFog.5 mph90%30.15 "Hg5 mi
1:56 AM65 °FClear.No wind97%30.14 "Hg7 mi
12:56 AM67 °FFog.No wind90%30.14 "Hg5 mi
11:56 PM
Jul 31
68 °FClear.No wind90%30.13 "Hg7 mi
10:56 PM66 °FClear.5 mph90%30.13 "Hg8 mi
9:56 PM70 °FClear.No wind81%30.13 "Hg9 mi
8:56 PM71 °FPartly sunny.5 mph78%30.12 "Hg10 mi
Weather by CustomWeather, © 2014

See weather overviewHow to use our weather pages